Ravenna, OH

4:05 PM EDT on June 25, 2017 (GMT -0400)
Ravenna

Weather History for KPOV - May, 2014

Change the Weather History Date:

Saturday, May 3, 2014

  Actual Average (KCAK) Record (KCAK)
Temperature  
Mean Temperature 52 °F -  
Max Temperature 61 °F 63 °F 88 °F (2012)
Min Temperature 44 °F 42 °F 30 °F (1986)
Degree Days  
Heating Degree Days 12    
Growing Degree Days 2 (Base 50)    
Moisture  
Dew Point 39 °F    
Average Humidity 61    
Maximum Humidity 84    
Minimum Humidity 36    
Precipitation  
Precipitation 0.00 in - - ()
Sea Level Pressure  
Sea Level Pressure 29.78 in    
Wind  
Wind Speed 5 mph (WSW)    
Max Wind Speed 21 mph    
Max Gust Speed 45 mph    
Visibility 10 miles    
Events Rain    
Averages and records for this station are not official NWS values.
T = Trace of Precipitation, MM = Missing Value Source: NWS Daily Summary

Daily Weather History Graph

Daily Weather History Graph

Search for Another Location

Airport or City:

Trip Planner

Search our weather history database for the weather conditions in past years. The results will help you decide how hot, cold, wet, or windy it might be!

Date:

Astronomy

May. 03, 2014 Rise Set
Actual Time 6:20 AM EDT 8:24 PM EDT
Civil Twilight 5:49 AM EDT 8:54 PM EDT
Nautical Twilight 5:13 AM EDT 9:31 PM EDT
Astronomical Twilight 4:32 AM EDT 10:12 PM EDT
Moon 9:48 AM EDT (5/3) No Moon Set
Length of Visible Light 15h 04m
Length of Day
14h 04m
Waxing Crescent, 19% of the Moon is Illuminated
May 3
Waxing Crescent
May 6
First Quarter
May 14
Full
May 21
Last Quarter
May 28
New

Hourly Weather History & Observations

Time (EDT) Temp. Dew Point Humidity Pressure Visibility Wind Dir Wind Speed Gust Speed Precip Events Conditions
12:16 AM 45.9 °F 40.3 °F 81% 29.84 in 10.0 mi Calm Calm - N/A   Mostly Cloudy
12:36 AM 44.8 °F 40.3 °F 84% 29.84 in 10.0 mi Calm Calm - N/A   Mostly Cloudy
12:56 AM 46.8 °F 39.9 °F 77% 29.83 in 10.0 mi Calm Calm - N/A   Overcast
1:16 AM 47.3 °F 39.9 °F 76% 29.83 in 10.0 mi SW 3.5 mph - N/A   Overcast
1:35 AM 46.9 °F 39.7 °F 76% 29.83 in 10.0 mi Calm Calm - N/A   Overcast
1:56 AM 47.3 °F 39.7 °F 75% 29.82 in 10.0 mi Calm Calm - N/A   Overcast
2:16 AM 47.1 °F 39.9 °F 76% 29.82 in 10.0 mi Calm Calm - N/A   Overcast
2:35 AM 47.3 °F 39.7 °F 75% 29.82 in 10.0 mi Calm Calm - N/A   Overcast
2:56 AM 47.7 °F 39.9 °F 75% 29.82 in 10.0 mi Calm Calm - N/A   Overcast
3:16 AM 47.3 °F 39.9 °F 76% 29.82 in 10.0 mi Calm Calm - N/A   Overcast
3:35 AM 47.3 °F 40.3 °F 77% 29.82 in 10.0 mi Calm Calm - N/A   Overcast
3:56 AM 47.7 °F 39.9 °F 75% 29.82 in 10.0 mi Calm Calm - N/A   Overcast
4:16 AM 47.3 °F 40.1 °F 76% 29.81 in 10.0 mi SW 3.5 mph - N/A   Overcast
4:35 AM 47.3 °F 39.6 °F 74% 29.81 in 10.0 mi Calm Calm - N/A   Overcast
4:56 AM 47.5 °F 40.1 °F 76% 29.81 in 10.0 mi SSW 3.5 mph - N/A   Overcast
5:15 AM 47.7 °F 39.7 °F 74% 29.81 in 10.0 mi SW 3.5 mph - N/A   Overcast
5:35 AM 47.7 °F 39.4 °F 73% 29.80 in 10.0 mi Calm Calm - N/A   Overcast
6:16 AM 47.5 °F 39.7 °F 75% 29.80 in 10.0 mi SW 3.5 mph - N/A   Overcast
6:36 AM 47.5 °F 39.4 °F 73% 29.80 in 10.0 mi SSW 4.6 mph - N/A   Overcast
6:56 AM 47.7 °F 39.4 °F 73% 29.80 in 10.0 mi SSW 4.6 mph - N/A   Overcast
7:16 AM 47.8 °F 39.4 °F 72% 29.80 in 10.0 mi Calm Calm - N/A   Overcast
7:35 AM 48.2 °F 39.4 °F 72% 29.80 in 10.0 mi SSW 4.6 mph - N/A   Overcast
7:56 AM 48.6 °F 39.6 °F 71% 29.80 in 10.0 mi SW 5.8 mph - N/A   Overcast
8:16 AM 49.1 °F 39.4 °F 69% 29.80 in 10.0 mi SSW 3.5 mph - N/A   Overcast
8:36 AM 50.0 °F 39.6 °F 67% 29.80 in 10.0 mi SW 9.2 mph - N/A   Overcast
8:55 AM 50.5 °F 39.6 °F 66% 29.80 in 10.0 mi SW 5.8 mph - N/A   Overcast
9:16 AM 51.1 °F 39.6 °F 65% 29.80 in 10.0 mi SSW 10.4 mph 17.3 mph N/A   Overcast
9:35 AM 51.3 °F 39.2 °F 63% 29.79 in 10.0 mi SSW 10.4 mph 17.3 mph N/A   Overcast
9:56 AM 51.1 °F 38.8 °F 63% 29.78 in 10.0 mi SSW 4.6 mph 17.3 mph N/A   Overcast
10:16 AM 52.2 °F 39.2 °F 61% 29.78 in 10.0 mi SW 8.1 mph 16.1 mph N/A   Overcast
10:35 AM 51.4 °F 39.0 °F 63% 29.77 in 10.0 mi SSW 6.9 mph - N/A Rain Light Rain
10:55 AM 52.2 °F 39.2 °F 61% 29.77 in 10.0 mi SSW 8.1 mph 16.1 mph N/A   Overcast
11:16 AM 51.3 °F 40.8 °F 67% 29.76 in 10.0 mi South 11.5 mph 17.3 mph N/A   Light Drizzle
11:35 AM 53.6 °F 41.5 °F 64% 29.75 in 10.0 mi South 9.2 mph - N/A   Overcast
11:56 AM 52.0 °F 40.6 °F 65% 29.75 in 10.0 mi SSW 8.1 mph - N/A Rain Light Rain
12:16 PM 53.1 °F 41.0 °F 64% 29.74 in 10.0 mi SW 8.1 mph - N/A   Overcast
12:35 PM 54.0 °F 40.3 °F 60% 29.73 in 10.0 mi SSW 6.9 mph - N/A   Overcast
12:56 PM 54.7 °F 40.8 °F 60% 29.73 in 10.0 mi SW 9.2 mph 17.3 mph N/A   Overcast
1:16 PM 54.7 °F 40.8 °F 60% 29.73 in 10.0 mi SW 9.2 mph 18.4 mph N/A   Overcast
1:36 PM 55.8 °F 40.5 °F 56% 29.73 in 10.0 mi SW 11.5 mph 21.9 mph N/A   Overcast
1:55 PM 56.3 °F 40.3 °F 55% 29.73 in 10.0 mi WSW 12.7 mph 23.0 mph N/A   Overcast
2:16 PM 59.2 °F 40.6 °F 50% 29.71 in 10.0 mi WSW 16.1 mph 23.0 mph N/A   Mostly Cloudy
2:35 PM 59.4 °F 40.6 °F 50% 29.71 in 10.0 mi SW 12.7 mph 20.7 mph N/A   Mostly Cloudy
2:56 PM 58.6 °F 41.2 °F 52% 29.69 in 10.0 mi SW 9.2 mph 19.6 mph N/A   Mostly Cloudy
3:16 PM 55.2 °F 41.0 °F 59% 29.71 in 7.0 mi WNW 17.3 mph 44.9 mph N/A Rain Rain
3:35 PM 55.9 °F 44.6 °F 66% 29.70 in 10.0 mi West 6.9 mph - N/A   Mostly Cloudy
4:16 PM 54.9 °F 41.9 °F 62% 29.71 in 10.0 mi WSW 15.0 mph 33.4 mph N/A Rain Light Rain
4:36 PM 54.9 °F 43.2 °F 65% 29.71 in 10.0 mi WSW 8.1 mph - N/A   Overcast
4:56 PM 57.7 °F 43.3 °F 59% 29.71 in 10.0 mi West 12.7 mph - N/A   Mostly Cloudy
5:16 PM 58.6 °F 43.2 °F 56% 29.72 in 10.0 mi WNW 13.8 mph 17.3 mph N/A   Mostly Cloudy
5:36 PM 59.0 °F 42.1 °F 53% 29.72 in 10.0 mi West 18.4 mph 26.5 mph N/A   Mostly Cloudy
5:55 PM 61.2 °F 40.3 °F 46% 29.73 in 10.0 mi West 16.1 mph 23.0 mph N/A   Scattered Clouds
6:16 PM 60.4 °F 35.1 °F 39% 29.74 in 10.0 mi West 18.4 mph 31.1 mph N/A   Scattered Clouds
6:36 PM 60.1 °F 32.9 °F 36% 29.75 in 10.0 mi West 20.7 mph 29.9 mph N/A   Scattered Clouds
6:55 PM 58.8 °F 34.2 °F 40% 29.75 in 10.0 mi West 16.1 mph 21.9 mph N/A   Mostly Cloudy
7:16 PM 56.3 °F 39.7 °F 54% 29.77 in 10.0 mi West 10.4 mph 21.9 mph N/A Rain Light Rain
7:36 PM 56.3 °F 38.8 °F 52% 29.77 in 10.0 mi West 10.4 mph - N/A   Mostly Cloudy
7:56 PM 55.9 °F 38.5 °F 52% 29.78 in 10.0 mi West 6.9 mph - N/A   Scattered Clouds
8:15 PM 56.5 °F 37.2 °F 49% 29.78 in 10.0 mi West 11.5 mph 25.3 mph N/A   Mostly Cloudy
8:35 PM 56.7 °F 36.0 °F 46% 29.79 in 10.0 mi West 18.4 mph 21.9 mph N/A Rain Light Rain
8:56 PM 56.7 °F 33.6 °F 42% 29.80 in 10.0 mi West 15.0 mph 23.0 mph N/A   Overcast
9:15 PM 56.3 °F 33.6 °F 42% 29.81 in 10.0 mi West 15.0 mph 18.4 mph N/A   Mostly Cloudy
9:36 PM 56.3 °F 31.5 °F 39% 29.82 in 10.0 mi West 12.7 mph 24.2 mph N/A   Scattered Clouds
9:55 PM 55.4 °F 30.9 °F 39% 29.83 in 10.0 mi West 15.0 mph 19.6 mph N/A   Clear
10:15 PM 54.5 °F 30.9 °F 41% 29.84 in 10.0 mi WNW 11.5 mph 18.4 mph N/A   Clear
10:35 PM 53.8 °F 31.5 °F 43% 29.85 in 10.0 mi West 10.4 mph 18.4 mph N/A   Clear
10:56 PM 53.2 °F 31.8 °F 44% 29.84 in 10.0 mi West 9.2 mph - N/A   Clear
11:16 PM 53.1 °F 32.0 °F 45% 29.84 in 10.0 mi WNW 6.9 mph - N/A   Mostly Cloudy
11:36 PM 51.8 °F 32.0 °F 47% 29.84 in 10.0 mi West 5.8 mph - N/A   Mostly Cloudy
11:55 PM 52.3 °F 32.7 °F 47% 29.84 in 10.0 mi West 6.9 mph - N/A   Overcast